When you browse on this site, cookies collect data to enhance your experience and personalize the content and advertising you see.
Visit our Privacy Policy to learn more. By continuing to use the site, you agree to this use of cookies and data.
  • Em Portugal
  • Lista de países
  • Para 7 dias
  • Temperatura da água
  • Mapa do tempo
  • Widgets de tempo
  • user-avatar
    Iniciar Sessão

    Previsão horária em Una

    Hoje, 21 Agosto, Quarta-feira

    Tempo Temperatura Precipitação Vento Pressão Humidade
    00:00 +13°C° 0 mm 1 m/s 588 mmHg 65%
    01:00 +13°C° 0 mm 1 m/s 587 mmHg 65%
    02:00 +13°C° 0 mm 1 m/s 587 mmHg 65%
    03:00 +13°C° 0 mm 1 m/s 587 mmHg 65%
    04:00 +13°C° 0 mm 1 m/s 587 mmHg 63%
    05:00 +14°C° 0 mm 1 m/s 588 mmHg 61%
    06:00 +14°C° 0 mm 1 m/s 588 mmHg 59%
    07:00 +16°C° 0 mm 1 m/s 589 mmHg 52%
    08:00 +20°C° 0 mm 1 m/s 590 mmHg 45%
    09:00 +22°C° 0 mm 1 m/s 591 mmHg 39%
    10:00 +23°C° 0 mm 2 m/s 591 mmHg 38%
    11:00 +24°C° 0 mm 2 m/s 591 mmHg 38%
    12:00 +24°C° 0 mm 3 m/s 591 mmHg 37%
    13:00 +24°C° 0 mm 3 m/s 591 mmHg 39%
    14:00 +24°C° 0 mm 3 m/s 590 mmHg 40%
    15:00 +22°C° 0 mm 3 m/s 590 mmHg 41%
    16:00 +21°C° 0 mm 2 m/s 589 mmHg 46%
    17:00 +20°C° 0 mm 2 m/s 588 mmHg 51%
    18:00 +19°C° 0 mm 1 m/s 587 mmHg 56%
    19:00 +18°C° 0 mm 1 m/s 587 mmHg 58%
    20:00 +15°C° 0 mm 1 m/s 586 mmHg 60%
    21:00 +14°C° 0 mm 1 m/s 586 mmHg 62%
    22:00 +14°C° 0 mm 1 m/s 586 mmHg 63%
    23:00 +14°C° 0 mm 1 m/s 586 mmHg 63%

    Amanhã, 22 Agosto, Quinta-feira

    Tempo Temperatura Precipitação Vento Pressão Humidade
    00:00 +13°C° 0 mm 1 m/s 585 mmHg 64%
    01:00 +13°C° 0 mm 1 m/s 585 mmHg 64%
    02:00 +13°C° 0 mm 1 m/s 585 mmHg 65%
    03:00 +13°C° 0 mm 1 m/s 585 mmHg 65%
    04:00 +13°C° 0 mm 1 m/s 585 mmHg 64%
    05:00 +14°C° 0 mm 1 m/s 585 mmHg 63%
    06:00 +14°C° 0 mm 1 m/s 586 mmHg 62%
    07:00 +16°C° 0 mm 1 m/s 587 mmHg 55%
    08:00 +20°C° 0 mm 1 m/s 588 mmHg 47%
    09:00 +22°C° 0 mm 1 m/s 589 mmHg 40%
    10:00 +23°C° 0 mm 2 m/s 589 mmHg 39%
    11:00 +23°C° 0 mm 2 m/s 589 mmHg 39%
    12:00 +24°C° 0 mm 3 m/s 589 mmHg 38%
    13:00 +24°C° 0 mm 3 m/s 589 mmHg 38%
    14:00 +24°C° 0 mm 3 m/s 588 mmHg 38%
    15:00 +22°C° 0 mm 3 m/s 588 mmHg 38%
    16:00 +21°C° 0 mm 2 m/s 587 mmHg 43%
    17:00 +20°C° 0 mm 2 m/s 587 mmHg 48%
    18:00 +19°C° 0 mm 1 m/s 586 mmHg 53%
    19:00 +18°C° 0 mm 1 m/s 586 mmHg 55%
    20:00 +15°C° 0 mm 1 m/s 585 mmHg 57%
    21:00 +14°C° 0 mm 1 m/s 585 mmHg 59%
    22:00 +13°C° 0 mm 1 m/s 585 mmHg 58%
    23:00 +13°C° 0 mm 1 m/s 585 mmHg 58%

    Depois de amanhã, 23 Agosto, Sexta-feira

    Tempo Temperatura Precipitação Vento Pressão Humidade
    00:00 +13°C° 0 mm 1 m/s 585 mmHg 57%
    01:00 +13°C° 0 mm 1 m/s 585 mmHg 57%
    02:00 +12°C° 0 mm 1 m/s 585 mmHg 57%
    03:00 +12°C° 0 mm 1 m/s 584 mmHg 57%
    04:00 +13°C° 0 mm 1 m/s 585 mmHg 57%
    05:00 +13°C° 0 mm 1 m/s 585 mmHg 57%
    06:00 +13°C° 0 mm 1 m/s 585 mmHg 57%
    07:00 +16°C° 0 mm 1 m/s 587 mmHg 50%
    08:00 +19°C° 0 mm 1 m/s 588 mmHg 43%
    09:00 +20°C° 0 mm 2 m/s 589 mmHg 36%
    10:00 +21°C° 0 mm 2 m/s 589 mmHg 35%
    11:00 +22°C° 0 mm 3 m/s 589 mmHg 34%
    12:00 +23°C° 0 mm 4 m/s 589 mmHg 34%
    13:00 +23°C° 0 mm 4 m/s 589 mmHg 35%
    14:00 +22°C° 0 mm 3 m/s 589 mmHg 36%
    15:00 +22°C° 0 mm 3 m/s 589 mmHg 37%
    16:00 +21°C° 0 mm 3 m/s 588 mmHg 43%
    17:00 +19°C° 0 mm 2 m/s 587 mmHg 48%
    18:00 +19°C° 0 mm 1 m/s 587 mmHg 54%
    19:00 +16°C° 0 mm 1 m/s 586 mmHg 56%
    20:00 +15°C° 0 mm 1 m/s 586 mmHg 58%
    21:00 +13°C° 0 mm 1 m/s 585 mmHg 60%
    22:00 +13°C° 0 mm 1 m/s 585 mmHg 59%
    23:00 +13°C° 0 mm 1 m/s 585 mmHg 59%

    24 Agosto, Sábado

    Tempo Temperatura Precipitação Vento Pressão Humidade
    00:00 +13°C° 0 mm 1 m/s 585 mmHg 59%
    01:00 +13°C° 0 mm 1 m/s 585 mmHg 59%
    02:00 +12°C° 0 mm 1 m/s 585 mmHg 59%
    03:00 +12°C° 0 mm 1 m/s 585 mmHg 59%
    04:00 +13°C° 0 mm 1 m/s 585 mmHg 58%
    05:00 +13°C° 0 mm 1 m/s 585 mmHg 57%
    06:00 +13°C° 0 mm 1 m/s 586 mmHg 56%
    07:00 +16°C° 0 mm 1 m/s 587 mmHg 48%
    08:00 +19°C° 0 mm 1 m/s 588 mmHg 40%
    09:00 +22°C° 0 mm 1 m/s 589 mmHg 32%
    10:00 +21°C° 0 mm 2 m/s 590 mmHg 33%
    11:00 +22°C° 0 mm 3 m/s 590 mmHg 33%
    12:00 +23°C° 0 mm 4 m/s 590 mmHg 34%
    13:00 +22°C° 0.1 mm 3 m/s 589 mmHg 35%
    14:00 +22°C° 0.1 mm 3 m/s 589 mmHg 37%
    15:00 +21°C° 0.1 mm 2 m/s 589 mmHg 39%
    16:00 +20°C° 0.1 mm 2 m/s 588 mmHg 45%
    17:00 +19°C° 0.1 mm 1 m/s 588 mmHg 51%
    18:00 +18°C° 0.1 mm 1 m/s 587 mmHg 57%
    19:00 +16°C° 0 mm 1 m/s 587 mmHg 58%
    20:00 +14°C° 0 mm 1 m/s 586 mmHg 60%
    21:00 +13°C° 0 mm 1 m/s 586 mmHg 61%
    22:00 +13°C° 0 mm 1 m/s 586 mmHg 61%
    23:00 +12°C° 0 mm 1 m/s 586 mmHg 61%

    25 Agosto, Domingo

    Tempo Temperatura Precipitação Vento Pressão Humidade
    00:00 +12°C° 0 mm 1 m/s 586 mmHg 60%
    01:00 +12°C° 0.1 mm 1 m/s 586 mmHg 62%
    02:00 +12°C° 0.1 mm 1 m/s 586 mmHg 65%
    03:00 +13°C° 0.1 mm 2 m/s 586 mmHg 67%
    04:00 +13°C° 0.1 mm 2 m/s 586 mmHg 69%
    05:00 +13°C° 0.1 mm 1 m/s 586 mmHg 71%
    06:00 +13°C° 0.1 mm 1 m/s 586 mmHg 73%
    07:00 +14°C° 0 mm 1 m/s 587 mmHg 66%
    08:00 +16°C° 0 mm 2 m/s 588 mmHg 59%
    09:00 +18°C° 0 mm 2 m/s 589 mmHg 52%
    10:00 +18°C° 0.2 mm 2 m/s 589 mmHg 50%
    11:00 +19°C° 0.2 mm 3 m/s 589 mmHg 47%
    12:00 +19°C° 0.2 mm 3 m/s 589 mmHg 45%
    13:00 +20°C° 0.2 mm 3 m/s 589 mmHg 44%
    14:00 +20°C° 0.2 mm 3 m/s 589 mmHg 43%
    15:00 +20°C° 0.2 mm 3 m/s 589 mmHg 43%
    16:00 +18°C° 0 mm 2 m/s 588 mmHg 47%
    17:00 +17°C° 0 mm 2 m/s 587 mmHg 51%
    18:00 +16°C° 0 mm 2 m/s 587 mmHg 56%
    19:00 +14°C° 0 mm 1 m/s 586 mmHg 56%
    20:00 +13°C° 0 mm 1 m/s 586 mmHg 56%
    21:00 +12°C° 0 mm 1 m/s 585 mmHg 57%
    22:00 +11°C° 0 mm 1 m/s 585 mmHg 55%
    23:00 +11°C° 0 mm 1 m/s 585 mmHg 54%

    26 Agosto, Segunda-feira

    Tempo Temperatura Precipitação Vento Pressão Humidade
    00:00 +10°C° 0 mm 2 m/s 585 mmHg 53%
    01:00 +11°C° 0 mm 1 m/s 585 mmHg 52%
    02:00 +11°C° 0 mm 1 m/s 585 mmHg 51%
    03:00 +11°C° 0 mm 1 m/s 585 mmHg 50%
    04:00 +11°C° 0 mm 1 m/s 585 mmHg 52%
    05:00 +12°C° 0 mm 1 m/s 586 mmHg 54%
    06:00 +12°C° 0 mm 1 m/s 586 mmHg 56%
    07:00 +14°C° 0 mm 1 m/s 587 mmHg 51%
    08:00 +16°C° 0 mm 1 m/s 588 mmHg 47%
    09:00 +19°C° 0 mm 1 m/s 589 mmHg 42%
    10:00 +19°C° 0 mm 2 m/s 589 mmHg 42%
    11:00 +20°C° 0 mm 2 m/s 590 mmHg 42%
    12:00 +21°C° 0 mm 2 m/s 590 mmHg 42%
    13:00 +20°C° 0.3 mm 2 m/s 589 mmHg 44%
    14:00 +19°C° 0.3 mm 2 m/s 589 mmHg 47%
    15:00 +19°C° 0.3 mm 2 m/s 589 mmHg 49%
    16:00 +17°C° 0.2 mm 2 m/s 588 mmHg 54%
    17:00 +16°C° 0.2 mm 1 m/s 588 mmHg 60%
    18:00 +15°C° 0.2 mm 1 m/s 587 mmHg 65%
    19:00 +14°C° 0 mm 1 m/s 587 mmHg 68%
    20:00 +13°C° 0 mm 1 m/s 587 mmHg 72%
    21:00 +11°C° 0 mm 1 m/s 587 mmHg 75%
    22:00 +11°C° 0 mm 1 m/s 587 mmHg 75%
    23:00 +12°C° 0 mm 1 m/s 588 mmHg 75%
    Mostrar mais